Weather History for Lihue, HI

Change the Weather History Date:

Sunday, December 29, 2013

  Actual Average Record
Temperature  
Mean Temperature 72 °F 72 °F  
Max Temperature 77 °F 78 °F 85 °F (1981)
Min Temperature 67 °F 66 °F 56 °F (1953)
Degree Days  
Heating Degree Days 0 0  
Month to date heating degree days 0 0  
Since 1 July heating degree days 0 0  
Cooling Degree Days 7 7  
Month to date cooling degree days 270 239  
Year to date cooling degree days 3695 3930  
Growing Degree Days 22 (Base 50)    
Moisture  
Dew Point 61 °F    
Average Humidity 73    
Maximum Humidity 90    
Minimum Humidity 56    
Precipitation  
Precipitation 0.01 in 0.16 in 1.36 in (1992)
Month to date precipitation 5.28 4.91  
Year to date precipitation 36.71 36.76  
Snow  
Snow 0.00 in - - ()
Month to date snowfall 0.0  
Since 1 July snowfall 0.0  
Snow Depth 0.00 in    
Sea Level Pressure  
Sea Level Pressure 30.00 in    
Wind  
Wind Speed 14 mph (North)    
Max Wind Speed 23 mph    
Max Gust Speed 26 mph    
Visibility 10 miles    
Events Rain    
T = Trace of Precipitation, MM = Missing Value Source: NWS Daily Summary

Daily Weather History Graph

Daily Weather History Graph

Search for Another Location

Airport:

Trip Planner

Search our weather history database for the weather conditions in past years. The results will help you decide how hot, cold, wet, or windy it might be!

Date:

Astronomy

Dec. 29, 2013 Rise Set
Actual Time 7:15 AM HST 6:04 PM HST
Civil Twilight 6:51 AM HST 6:28 PM HST
Nautical Twilight 6:23 AM HST 6:56 PM HST
Astronomical Twilight 5:55 AM HST 7:23 PM HST
Moon 4:20 AM HST (12/29) 3:44 PM HST (12/29)
Length of Visible Light 11h 37m
Length of Day
10h 48m
Waning Crescent, 9% of the Moon is Illuminated
Dec 29
Waning Crescent
Jan 1
New
Jan 7
First Quarter
Jan 15
Full
Jan 23
Last Quarter

Hourly Weather History & Observations

Time (HST) Temp. Dew Point Humidity Pressure Visibility Wind Dir Wind Speed Gust Speed Precip Events Conditions
12:53 AM 70.0 °F 66.0 °F 87% 30.00 in 10.0 mi North 13.8 mph - 0.00 in   Mostly Cloudy
1:20 AM 69.8 °F 66.2 °F 88% 30.01 in 10.0 mi North 15.0 mph - 0.00 in Rain Light Rain
1:34 AM 69.8 °F 66.2 °F 88% 30.00 in 10.0 mi North 10.4 mph - 0.01 in   Mostly Cloudy
1:53 AM 68.0 °F 64.9 °F 90% 29.99 in 10.0 mi North 15.0 mph - 0.01 in   Partly Cloudy
2:03 AM 69.8 °F 64.4 °F 83% 30.00 in 10.0 mi North 13.8 mph - N/A   Scattered Clouds
2:10 AM 69.8 °F 64.4 °F 83% 29.99 in 10.0 mi North 13.8 mph - N/A   Mostly Cloudy
2:39 AM 69.8 °F 64.4 °F 83% 29.99 in 10.0 mi North 11.5 mph - N/A   Mostly Cloudy
2:53 AM 69.1 °F 64.9 °F 87% 29.98 in 10.0 mi North 13.8 mph - N/A   Scattered Clouds
3:53 AM 68.0 °F 63.0 °F 84% 29.97 in 10.0 mi North 9.2 mph - N/A   Clear
4:53 AM 66.9 °F 62.1 °F 84% 29.97 in 10.0 mi North 9.2 mph - N/A   Clear
5:53 AM 68.0 °F 63.0 °F 84% 29.99 in 10.0 mi North 9.2 mph - N/A   Partly Cloudy
6:53 AM 66.9 °F 63.0 °F 87% 30.00 in 10.0 mi NNW 6.9 mph - N/A   Clear
7:53 AM 69.1 °F 63.0 °F 81% 30.02 in 10.0 mi NNW 11.5 mph - N/A   Partly Cloudy
8:53 AM 71.1 °F 63.0 °F 75% 30.05 in 10.0 mi North 18.4 mph - N/A   Mostly Cloudy
9:53 AM 73.0 °F 62.1 °F 68% 30.06 in 10.0 mi NNE 18.4 mph - 0.00 in   Overcast
10:53 AM 73.0 °F 61.0 °F 66% 30.04 in 10.0 mi North 19.6 mph - 0.00 in   Overcast
11:53 AM 77.0 °F 62.1 °F 60% 30.02 in 10.0 mi NNE 17.3 mph - N/A   Scattered Clouds
12:53 PM 77.0 °F 61.0 °F 58% 30.00 in 10.0 mi NNE 15.0 mph - N/A   Partly Cloudy
1:53 PM 77.0 °F 61.0 °F 58% 29.97 in 10.0 mi NNE 18.4 mph - N/A   Partly Cloudy
2:53 PM 75.9 °F 60.1 °F 58% 29.96 in 10.0 mi North 17.3 mph - N/A   Scattered Clouds
3:53 PM 75.0 °F 59.0 °F 57% 29.96 in 10.0 mi NNE 18.4 mph - N/A   Partly Cloudy
4:53 PM 73.9 °F 59.0 °F 59% 29.97 in 10.0 mi North 15.0 mph - N/A   Partly Cloudy
5:53 PM 71.1 °F 57.9 °F 63% 29.98 in 10.0 mi North 6.9 mph - N/A   Scattered Clouds
6:53 PM 72.0 °F 57.9 °F 61% 29.99 in 10.0 mi North 13.8 mph 23.0 mph N/A   Mostly Cloudy
7:53 PM 72.0 °F 57.0 °F 59% 30.01 in 10.0 mi NNE 15.0 mph - N/A   Mostly Cloudy
8:53 PM 72.0 °F 57.9 °F 61% 30.01 in 10.0 mi NNE 18.4 mph - N/A   Mostly Cloudy
9:53 PM 69.1 °F 55.9 °F 63% 30.04 in 10.0 mi North 11.5 mph - N/A   Scattered Clouds
10:53 PM 70.0 °F 55.9 °F 61% 30.04 in 10.0 mi North 10.4 mph - N/A   Mostly Cloudy
11:53 PM 68.0 °F 55.9 °F 65% 30.04 in 10.0 mi North 9.2 mph - N/A   Mostly Cloudy